Millington, TN

11:09 PM CDT on August 18, 2019 (GMT -0500)
Millington Municipal

Weather History for KNQA - July, 2019

Change the Weather History Date:

Thursday, July 18, 2019

  Actual Average Record
Temperature  
Mean Temperature 83 °F -  
Max Temperature 91 °F 90 °F 100 °F (2006)
Min Temperature 75 °F 72 °F 64 °F (2014)
Cooling Degree Days 18    
Growing Degree Days 33 (Base 50)    
Moisture  
Dew Point 76 °F    
Average Humidity 82    
Maximum Humidity 100    
Minimum Humidity 59    
Precipitation  
Precipitation 0.00 in - - ()
Sea Level Pressure  
Sea Level Pressure 29.99 in    
Wind  
Wind Speed 5 mph (SSW)    
Max Wind Speed 13 mph    
Max Gust Speed 17 mph    
Visibility 10 miles    
Events      
Averages and records for this station are not official NWS values.
T = Trace of Precipitation, MM = Missing Value Source: NWS Daily Summary

Daily Weather History Graph

Daily Weather History Graph

Search for Another Location

Airport or City:

Astronomy

Jul. 18, 2019 Rise Set
Actual Time 5:57 AM CDT 8:13 PM CDT
Civil Twilight 5:28 AM CDT 8:42 PM CDT
Nautical Twilight 4:53 AM CDT 9:17 PM CDT
Astronomical Twilight 4:14 AM CDT 9:56 PM CDT
Moon 9:41 PM CDT (7/18) 7:25 AM CDT (7/18)
Length of Visible Light 15h 13m
Length of Day
14h 15m
Full, 97% of the Moon is Illuminated
Jul 18
Full
Jul 24
Last Quarter
Jul 31
New
Aug 7
First Quarter
Aug 15
Full

Hourly Weather History & Observations

Time (CDT) Temp. Heat Index Dew Point Humidity Pressure Visibility Wind Dir Wind Speed Gust Speed Precip Events Conditions
12:50 AM 80.6 °F 87.1 °F 77.0 °F 89% 30.04 in 10.0 mi SSW 4.6 mph - N/A   Clear
1:35 AM 78.8 °F - 73.4 °F 83% 30.05 in 10.0 mi North 10.4 mph 17.3 mph N/A   Overcast
1:55 AM 78.8 °F - 71.6 °F 78% 30.04 in 10.0 mi Calm Calm 11.5 mph N/A   Overcast
2:15 AM 77.0 °F - 71.6 °F 83% 30.03 in 10.0 mi Variable 5.8 mph - N/A   Overcast
2:35 AM 75.2 °F - 71.6 °F 89% 30.02 in 8.0 mi Calm Calm - N/A   Overcast
3:15 AM 75.2 °F - 73.4 °F 94% 29.99 in 10.0 mi Calm Calm - N/A   Scattered Clouds
3:35 AM 75.2 °F - 73.4 °F 94% 29.99 in 10.0 mi Calm Calm - N/A   Clear
3:55 AM 75.2 °F - 73.4 °F 94% 29.99 in 10.0 mi Calm Calm - N/A   Clear
4:15 AM 75.2 °F - 73.4 °F 94% 29.97 in 10.0 mi Calm Calm - N/A   Clear
4:35 AM 75.2 °F - 73.4 °F 94% 29.98 in 10.0 mi Calm Calm - N/A   Clear
4:40 AM 75.2 °F - 73.4 °F 94% 29.98 in 10.0 mi Calm Calm - N/A   Clear
5:30 AM 75.2 °F - 75.2 °F 100% 29.99 in 10.0 mi Calm Calm - N/A   Clear
5:50 AM 77.0 °F - 75.2 °F 94% 29.99 in 10.0 mi SSW 3.5 mph - N/A   Clear
6:50 AM 78.8 °F - 77.0 °F 94% 30.00 in 10.0 mi SSW 4.6 mph - N/A   Clear
8:50 AM 80.6 °F 87.1 °F 77.0 °F 89% 30.03 in 10.0 mi SW 5.8 mph - N/A   Clear
9:50 AM 82.4 °F 90.9 °F 77.0 °F 84% 30.03 in 10.0 mi SSW 6.9 mph - N/A   Clear
10:50 AM 86.0 °F 96.9 °F 77.0 °F 74% 30.03 in 10.0 mi WSW 8.1 mph - N/A   Clear
11:50 AM 89.6 °F 104.7 °F 78.8 °F 70% 30.02 in 10.0 mi SW 10.4 mph - N/A   Scattered Clouds
12:50 PM 89.6 °F 104.7 °F 78.8 °F 70% 30.01 in 10.0 mi WSW 10.4 mph - N/A   Scattered Clouds
1:50 PM 89.6 °F 104.7 °F 78.8 °F 70% 30.00 in 10.0 mi SW 10.4 mph - N/A   Scattered Clouds
2:50 PM 91.4 °F 105.1 °F 77.0 °F 63% 29.98 in 10.0 mi SW 11.5 mph - N/A   Scattered Clouds
3:50 PM 91.4 °F 105.1 °F 77.0 °F 63% 29.98 in 10.0 mi SW 11.5 mph - N/A   Scattered Clouds
4:50 PM 91.4 °F 105.1 °F 77.0 °F 63% 29.96 in 10.0 mi SSW 12.7 mph - N/A   Partly Cloudy
5:50 PM 91.4 °F 102.5 °F 75.2 °F 59% 29.95 in 10.0 mi SSW 10.4 mph 17.3 mph N/A   Partly Cloudy
6:50 PM 89.6 °F 102.2 °F 77.0 °F 66% 29.95 in 10.0 mi SSW 11.5 mph - N/A   Partly Cloudy
7:50 PM 86.0 °F 95.1 °F 75.2 °F 70% 29.95 in 10.0 mi SSW 9.2 mph - N/A   Clear
8:50 PM 84.2 °F 92.3 °F 75.2 °F 74% 29.96 in 10.0 mi South 5.8 mph - N/A   Clear
9:50 PM 80.6 °F 87.1 °F 77.0 °F 89% 29.97 in 10.0 mi SSE 5.8 mph - N/A   Clear
10:50 PM 80.6 °F 87.1 °F 77.0 °F 89% 29.99 in 10.0 mi SSE 5.8 mph - N/A   Clear
11:50 PM 80.6 °F 87.1 °F 77.0 °F 89% 29.97 in 10.0 mi South 5.8 mph - N/A   Clear